User: anonymous   Login
Location: Unspecified
(0.0000°N, 0.0000°E)
Time: 00:09:12
(UTC+00:00)
Language:

Fermi - Orbit

View from above orbital plane
View from above orbital plane
View from above satellite
View from above satellite

Ground track
Ground track

The orbit data is extracted from the following two-line orbital elements,

1 33053U 08029A   18294.27585778  .00000472  00000-0  10233-4 0  9992
2 33053  25.5829 261.0037 0012239 202.4057 157.5944 15.11143245571682
Epoch (UTC): 21 October 2018 06:37:14
Eccentricity: 0.0012239
inclination: 25.5829°
perigee height: 524 km
apogee height: 541 km
right ascension of ascending node: 261.0037°
argument of perigee: 202.4057°
revolutions per day: 15.11143245
mean anomaly at epoch: 157.5944°
orbit number at epoch: 57168

The dashed part of the orbit path shows where the satellite is in the earth's shadow,  

DLR